2024-172B

Last updated on Fri Oct 04 2024 00:02:04 GMT+0000 (Coordinated Universal Time)

1 61221U 24172B 24277.31785947 .00013899 00000+0 19713-2 0 9996 2 61221 98.0184 3.7173 0000567 0.2431 359.8779 14.77100646 1828
UTC large
Height (km)
Speed (km/s)
/
Latitude / Longitude
Inclination (degrees)
Orbital Period (minutes)
Azimuth
Elevation
Range (km)
Doppler Factor

Next 0 passes for location: London (51.5072 / 0.1276)

Sorry there are no passes over London.